Вернуться в каталог

SL-8 DEB

АктивенVLEO
NORAD 16867·DEBRIS·🇷🇺 Russia

Запущен Jul 16, 1986 с Plesetsk Cosmodrome

Loading…

Ближайшие Пролёты (ближайшие 24 часа)

TLE

СвежийSource: Space-Track

Эпоха: Sep 14, 2026, 08:17 UTC

1 16867U 86052E   26257.34579656  .00012538  00000-0  64075-3 0  9990
2 16867  73.9959  31.4098 0008479 193.8540 166.2424 15.16685556142465

Отслеживайте SL-8 DEB в реальном времени с AllMySat

Download on the App Store